START_TIME,STEP,MOV.,M15,t_acc.,M20,t_acc.
1989-08-27T03:00:44.490 ,2,0,0.,24.0,0.,24.0
1989-08-27T03:01:08.490 ,3,1,0.,24.0,0.,24.0
1989-08-27T03:01:32.490 ,3,0,0.,24.0,0.,24.0
1989-08-27T03:01:56.490 ,4,1,0.,24.0,0.,24.0
1989-08-27T03:02:20.490 ,4,0,0.,24.0,0.,24.0
1989-08-27T03:02:44.490 ,5,1,0.,24.0,0.,24.0
1989-08-27T03:03:08.490 ,5,0,0.,24.0,0.,24.0
1989-08-27T03:03:32.490 ,6,1,0.,24.0,0.,24.0
1989-08-27T03:03:56.490 ,6,0,0.,24.0,0.,24.0
1989-08-27T03:04:20.490 ,7,1,0.,24.0,0.,24.0
1989-08-27T03:04:44.490 ,7,0,0.,24.0,0.,24.0
1989-08-27T03:05:08.490 ,7,1,0.,24.0,0.,24.0
1989-08-27T03:05:32.490 ,7,0,0.,24.0,0.,24.0
1989-08-27T03:05:56.490 ,6,1,0.,24.0,0.,24.0
1989-08-27T03:06:20.490 ,6,0,0.,24.0,0.,24.0
1989-08-27T03:06:44.490 ,5,1,0.,24.0,0.,24.0
1989-08-27T03:07:08.490 ,5,0,0.,24.0,0.,24.0
1989-08-27T03:07:32.490 ,4,1,0.,24.0,0.,24.0
1989-08-27T03:07:56.490 ,4,0,0.,24.0,0.,24.0
1989-08-27T03:08:20.490 ,3,1,0.,24.0,0.,24.0
1989-08-27T03:08:44.490 ,3,0,0.,24.0,0.,24.0
1989-08-27T03:09:08.490 ,2,1,0.,24.0,0.,24.0
1989-08-27T03:09:32.490 ,2,0,0.,24.0,0.,24.0
1989-08-27T03:09:56.490 ,1,1,0.,24.0,0.,24.0
1989-08-27T03:10:20.490 ,1,0,0.,24.0,0.,24.0
1989-08-27T03:10:44.490 ,0,1,0.,24.0,0.,24.0
1989-08-27T03:11:08.490 ,0,0,0.,24.0,0.,24.0
1989-08-27T03:11:32.490 ,0,1,0.,24.0,0.,24.0
1989-08-27T03:11:56.490 ,0,0,0.,24.0,0.,24.0
1989-08-27T03:12:20.490 ,1,1,0.,24.0,0.,24.0
1989-08-27T03:12:44.490 ,1,0,0.,24.0,0.,24.0
1989-08-27T03:13:08.490 ,2,1,0.,24.0,0.,24.0
1989-08-27T03:13:32.490 ,2,0,0.,24.0,0.,24.0
1989-08-27T03:13:56.490 ,3,1,0.,24.0,0.,24.0
1989-08-27T03:14:20.490 ,3,0,0.,24.0,0.,24.0
1989-08-27T03:14:44.490 ,4,1,0.,24.0,0.,24.0
1989-08-27T03:15:08.490 ,4,0,0.,24.0,0.,24.0
1989-08-27T03:15:32.490 ,5,1,0.,24.0,0.,24.0
1989-08-27T03:15:56.490 ,5,0,0.,24.0,0.,24.0
1989-08-27T03:16:20.490 ,6,1,0.,24.0,0.,24.0
1989-08-27T03:16:44.490 ,6,0,0.,24.0,0.,24.0
1989-08-27T03:17:08.490 ,7,1,0.,24.0,0.,24.0
1989-08-27T03:17:32.490 ,7,0,0.,24.0,0.,24.0
1989-08-27T03:17:56.490 ,7,1,0.,24.0,0.,24.0
1989-08-27T03:18:20.490 ,7,0,0.,24.0,0.,24.0
1989-08-27T03:18:44.490 ,6,1,0.,24.0,0.,24.0
1989-08-27T03:19:08.490 ,6,0,0.,24.0,0.,24.0
1989-08-27T03:19:32.490 ,5,1,0.,24.0,0.,24.0
1989-08-27T03:19:56.490 ,5,0,0.,24.0,0.,24.0
1989-08-27T03:20:20.490 ,4,1,0.,24.0,0.,24.0
1989-08-27T03:20:44.490 ,4,0,0.,24.0,0.,24.0
1989-08-27T03:21:08.490 ,3,1,0.,24.0,0.,24.0
1989-08-27T03:21:32.490 ,3,0,0.,24.0,0.,24.0
1989-08-27T03:21:56.490 ,2,1,0.,24.0,0.,24.0
1989-08-27T03:22:20.490 ,2,0,0.,24.0,0.,24.0
1989-08-27T03:22:44.490 ,1,1,0.,24.0,0.,24.0
1989-08-27T03:23:08.490 ,1,0,0.,24.0,0.,24.0
1989-08-27T03:23:32.490 ,0,1,0.,24.0,0.,24.0
1989-08-27T03:23:56.490 ,0,0,0.,24.0,0.,24.0
1989-08-27T03:24:20.490 ,0,0,,0,,0
1989-08-27T03:24:44.490 ,0,0,,0,,0
1989-08-27T03:24:28.290 ,0,1,0.,24.0,0.,24.0
1989-08-27T03:24:44.490 ,0,0,,0,,0
1989-08-27T03:25:39.690 ,0,0,0.,24.0,0.,24.0
1989-08-27T03:25:56.490 ,2,1,0.,24.0,0.,24.0
1989-08-27T03:26:20.490 ,2,0,0.,24.0,0.,24.0
1989-08-27T03:26:44.490 ,3,1,0.,24.0,0.,24.0
1989-08-27T03:27:08.490 ,3,0,0.,24.0,0.,24.0
1989-08-27T03:27:32.490 ,4,1,0.,24.0,0.,24.0
1989-08-27T03:27:56.490 ,4,0,0.,24.0,0.,24.0
1989-08-27T03:28:20.490 ,5,1,0.,24.0,0.,24.0
1989-08-27T03:28:44.490 ,5,0,0.,24.0,0.,24.0
1989-08-27T03:29:08.490 ,6,1,0.,24.0,0.,24.0
1989-08-27T03:29:32.490 ,6,0,0.,24.0,0.,24.0
1989-08-27T03:29:56.490 ,7,1,0.,24.0,0.,24.0
1989-08-27T03:30:20.490 ,7,0,0.,24.0,0.,24.0
1989-08-27T03:30:44.490 ,7,1,0.,24.0,0.,24.0
1989-08-27T03:31:08.490 ,7,0,0.,24.0,0.,24.0
1989-08-27T03:31:32.490 ,6,1,0.,24.0,0.,24.0
1989-08-27T03:31:56.490 ,6,0,0.,24.0,0.,24.0
1989-08-27T03:32:20.490 ,5,1,0.,24.0,0.,24.0
1989-08-27T03:32:44.490 ,5,0,0.,24.0,0.,24.0
1989-08-27T03:33:08.490 ,4,1,0.,24.0,0.,24.0
1989-08-27T03:33:32.490 ,4,0,0.,24.0,0.,24.0
1989-08-27T03:33:56.490 ,3,1,0.,24.0,0.,24.0
1989-08-27T03:34:20.490 ,3,0,0.,24.0,0.,24.0
1989-08-27T03:34:44.490 ,2,1,0.,24.0,0.,24.0
1989-08-27T03:35:08.490 ,2,0,0.,24.0,0.,24.0
1989-08-27T03:35:32.490 ,1,1,0.,24.0,0.,24.0
1989-08-27T03:35:56.490 ,1,0,0.,24.0,0.,24.0
1989-08-27T03:36:20.490 ,0,1,0.,24.0,0.,24.0
1989-08-27T03:36:44.490 ,0,0,0.,24.0,0.,24.0
1989-08-27T03:37:08.490 ,0,1,0.,24.0,0.,24.0
1989-08-27T03:37:32.490 ,0,0,0.,24.0,0.,24.0
1989-08-27T03:37:56.490 ,1,1,0.,24.0,0.,24.0
1989-08-27T03:38:20.490 ,1,0,0.,24.0,0.,24.0
1989-08-27T03:38:44.490 ,2,1,0.,24.0,0.,24.0
1989-08-27T03:39:08.490 ,2,0,0.,24.0,0.,24.0
1989-08-27T03:39:32.490 ,3,1,0.,24.0,0.,24.0
1989-08-27T03:39:56.490 ,3,0,0.,24.0,0.,24.0
1989-08-27T03:40:20.490 ,4,1,0.,24.0,0.,24.0
1989-08-27T03:40:44.490 ,4,0,0.,24.0,0.,24.0
1989-08-27T03:41:08.490 ,5,1,0.,24.0,0.,24.0
1989-08-27T03:41:32.490 ,5,0,0.,24.0,0.,24.0
1989-08-27T03:41:56.490 ,6,1,0.,24.0,0.,24.0
1989-08-27T03:42:20.490 ,6,0,0.,24.0,0.,24.0
1989-08-27T03:42:44.490 ,7,1,0.,24.0,0.,24.0
1989-08-27T03:43:08.490 ,7,0,0.,24.0,0.,24.0
1989-08-27T03:43:32.490 ,7,1,0.,24.0,0.,24.0
1989-08-27T03:43:56.490 ,7,0,0.,24.0,0.,24.0
1989-08-27T03:44:20.490 ,6,1,0.,24.0,0.,24.0
1989-08-27T03:44:44.490 ,6,0,0.,24.0,0.,24.0
1989-08-27T03:45:08.490 ,5,1,0.,24.0,0.,24.0
1989-08-27T03:45:32.490 ,5,0,0.,24.0,0.,24.0
1989-08-27T03:45:56.490 ,4,1,0.,24.0,0.,24.0
1989-08-27T03:46:20.490 ,4,0,0.,24.0,0.,24.0
1989-08-27T03:46:44.490 ,3,1,0.,24.0,0.,24.0
1989-08-27T03:47:08.490 ,3,0,0.,24.0,0.,24.0
1989-08-27T03:47:32.490 ,2,1,0.,24.0,0.,24.0
1989-08-27T03:47:56.490 ,2,0,0.,24.0,0.,24.0
1989-08-27T03:48:20.490 ,1,1,0.,24.0,0.,24.0
1989-08-27T03:48:44.490 ,1,0,0.,24.0,0.,24.0
1989-08-27T03:49:08.490 ,0,1,0.,24.0,0.,24.0
1989-08-27T03:49:32.490 ,0,0,0.,24.0,0.,24.0
1989-08-27T03:49:56.490 ,0,1,0.,24.0,0.,24.0
1989-08-27T03:50:20.490 ,0,0,0.,24.0,0.,24.0
1989-08-27T03:50:44.490 ,1,1,0.,24.0,0.,24.0
1989-08-27T03:51:08.490 ,1,0,0.,24.0,0.,24.0
1989-08-27T03:51:32.490 ,2,1,0.,24.0,0.,24.0
1989-08-27T03:51:56.490 ,2,0,0.,24.0,0.,24.0
1989-08-27T03:52:20.490 ,3,1,0.,24.0,0.,24.0
1989-08-27T03:52:44.490 ,3,0,0.,24.0,0.,24.0
1989-08-27T03:53:08.490 ,4,1,0.,24.0,0.,24.0
1989-08-27T03:53:32.490 ,4,0,0.,24.0,0.,24.0
1989-08-27T03:53:56.490 ,5,1,0.,24.0,0.,24.0
1989-08-27T03:54:20.490 ,5,0,0.,24.0,0.,24.0
1989-08-27T03:54:44.490 ,6,1,0.,24.0,0.,24.0
1989-08-27T03:55:08.490 ,6,0,0.,24.0,0.,24.0
1989-08-27T03:55:32.490 ,7,1,0.,24.0,0.,24.0
1989-08-27T03:55:56.490 ,7,0,0.,24.0,0.,24.0
1989-08-27T03:56:20.490 ,7,1,0.,24.0,0.,24.0
1989-08-27T03:56:44.490 ,7,0,0.,24.0,0.,24.0
1989-08-27T03:57:08.490 ,6,1,0.,24.0,0.,24.0
1989-08-27T03:57:32.490 ,6,0,0.,24.0,0.,24.0
1989-08-27T03:57:56.490 ,5,1,0.,24.0,0.,24.0
1989-08-27T03:58:20.490 ,5,0,0.,24.0,0.,24.0
1989-08-27T03:58:44.490 ,4,1,0.,24.0,0.,24.0
1989-08-27T03:59:08.490 ,4,0,0.,24.0,0.,24.0
1989-08-27T03:59:32.490 ,3,1,0.,24.0,0.,24.0
1989-08-27T03:59:56.490 ,3,0,0.,24.0,0.,24.0
1989-08-27T04:00:20.490 ,2,1,0.,24.0,0.,24.0
1989-08-27T04:00:44.490 ,2,0,0.,24.0,0.,24.0
1989-08-27T04:01:08.490 ,1,1,0.,24.0,0.,24.0
1989-08-27T04:01:32.490 ,1,0,0.,24.0,0.,24.0
1989-08-27T04:01:56.490 ,0,1,0.,24.0,0.,24.0
1989-08-27T04:02:20.490 ,0,0,0.,24.0,0.,24.0
1989-08-27T04:02:44.490 ,0,1,0.,24.0,0.,24.0
1989-08-27T04:03:08.490 ,0,0,0.,24.0,0.,24.0
1989-08-27T04:03:32.490 ,1,1,0.,24.0,0.,24.0
1989-08-27T04:03:56.490 ,1,0,0.,24.0,0.,24.0
1989-08-27T04:04:20.490 ,2,1,0.,24.0,0.,24.0
1989-08-27T04:04:44.490 ,2,0,0.,24.0,0.,24.0
1989-08-27T04:05:08.490 ,3,1,0.,24.0,0.,24.0
1989-08-27T04:05:32.490 ,3,0,0.,24.0,0.,24.0
1989-08-27T04:05:56.490 ,4,1,0.,24.0,0.,24.0
1989-08-27T04:06:20.490 ,4,0,0.,24.0,0.,24.0
1989-08-27T04:06:44.490 ,5,1,0.,24.0,0.,24.0
1989-08-27T04:07:08.490 ,5,0,0.,24.0,0.,24.0
1989-08-27T04:07:32.490 ,6,1,0.,24.0,0.,24.0
1989-08-27T04:07:56.490 ,6,0,0.,24.0,0.,24.0
1989-08-27T04:08:20.490 ,7,1,0.,24.0,0.,24.0
1989-08-27T04:08:44.490 ,7,0,0.,24.0,0.,24.0
1989-08-27T04:09:08.490 ,7,1,0.,24.0,0.,24.0
1989-08-27T04:09:32.490 ,7,0,0.,24.0,0.,24.0
1989-08-27T04:09:56.490 ,6,1,0.,24.0,0.,24.0
1989-08-27T04:10:20.490 ,6,0,0.,24.0,0.,24.0
1989-08-27T04:10:44.490 ,5,1,0.,24.0,0.,24.0
1989-08-27T04:11:08.490 ,5,0,0.,24.0,0.,24.0
1989-08-27T04:11:32.490 ,4,1,0.,24.0,0.,24.0
1989-08-27T04:11:56.490 ,4,0,0.,24.0,0.,24.0
1989-08-27T04:12:20.490 ,3,1,0.,24.0,0.,24.0
1989-08-27T04:12:44.490 ,3,0,0.,24.0,0.,24.0
1989-08-27T04:13:08.490 ,2,1,0.,24.0,0.,24.0
1989-08-27T04:13:32.490 ,2,0,0.,24.0,0.,24.0
1989-08-27T04:13:56.490 ,1,1,0.,24.0,0.,24.0
1989-08-27T04:14:20.490 ,1,0,0.,24.0,0.,24.0
1989-08-27T04:14:44.490 ,0,1,0.,24.0,0.,24.0
1989-08-27T04:15:08.490 ,0,0,0.,24.0,0.,24.0
1989-08-27T04:15:32.490 ,0,1,0.,24.0,0.,24.0
1989-08-27T04:15:56.490 ,0,0,0.,24.0,0.,24.0
1989-08-27T04:16:20.490 ,1,1,0.,24.0,0.,24.0
1989-08-27T04:16:44.490 ,1,0,0.,24.0,0.,24.0
1989-08-27T04:17:08.490 ,2,1,0.,24.0,0.,24.0
1989-08-27T04:17:32.490 ,2,0,0.,24.0,0.,24.0
1989-08-27T04:17:56.490 ,3,1,0.,24.0,0.,24.0
1989-08-27T04:18:20.490 ,3,0,0.,24.0,0.,24.0
1989-08-27T04:18:44.490 ,4,1,0.,24.0,0.,24.0
1989-08-27T04:19:08.490 ,4,0,0.,24.0,0.,24.0
1989-08-27T04:19:32.490 ,5,1,0.,24.0,0.,24.0
1989-08-27T04:19:56.490 ,5,0,0.,24.0,0.,24.0
1989-08-27T04:20:20.490 ,6,1,0.,24.0,0.,24.0
1989-08-27T04:20:44.490 ,6,0,0.,24.0,0.,24.0
1989-08-27T04:21:08.490 ,7,1,0.,24.0,0.,24.0
1989-08-27T04:21:32.490 ,7,0,0.,24.0,0.,24.0
1989-08-27T04:21:56.490 ,7,1,0.,24.0,0.,24.0
1989-08-27T04:22:20.490 ,7,0,0.,24.0,0.,24.0
1989-08-27T04:22:44.490 ,6,1,0.,24.0,0.,24.0
1989-08-27T04:23:08.490 ,6,0,0.,24.0,0.,24.0
1989-08-27T04:23:32.490 ,5,1,0.,24.0,0.,24.0
1989-08-27T04:23:56.490 ,5,0,0.,24.0,0.,24.0
1989-08-27T04:24:20.490 ,4,1,0.,24.0,0.,24.0
1989-08-27T04:24:44.490 ,4,0,0.,24.0,0.,24.0
1989-08-27T04:25:08.490 ,3,1,0.,24.0,0.,24.0
1989-08-27T04:25:32.490 ,3,0,0.,24.0,0.,24.0
1989-08-27T04:25:56.490 ,2,1,0.,24.0,0.,24.0
1989-08-27T04:26:20.490 ,2,0,0.,24.0,0.,24.0
1989-08-27T04:26:44.490 ,1,1,0.,24.0,0.,24.0
1989-08-27T04:27:08.490 ,1,0,0.,24.0,0.,24.0
1989-08-27T04:27:32.490 ,0,1,0.,24.0,0.,24.0
1989-08-27T04:27:56.490 ,0,0,0.,24.0,0.,24.0
1989-08-27T04:28:20.490 ,0,1,0.,24.0,0.,24.0
1989-08-27T04:28:44.490 ,0,0,0.,24.0,0.,24.0
1989-08-27T04:29:08.490 ,1,1,0.,24.0,0.,24.0
1989-08-27T04:29:32.490 ,1,0,0.,24.0,0.,24.0
1989-08-27T04:29:56.480 ,2,1,0.,24.0,0.,24.0
1989-08-27T04:30:20.480 ,2,0,0.,24.0,0.,24.0
1989-08-27T04:30:44.480 ,3,1,0.,24.0,0.,24.0
1989-08-27T04:31:08.480 ,3,0,0.,24.0,0.,24.0
1989-08-27T04:31:32.480 ,4,1,0.,24.0,0.,24.0
1989-08-27T04:31:56.480 ,4,0,0.,24.0,0.,24.0
1989-08-27T04:32:20.480 ,5,1,0.,24.0,0.,24.0
1989-08-27T04:32:44.480 ,5,0,0.,24.0,0.,24.0
1989-08-27T04:33:08.480 ,6,1,0.,24.0,0.,24.0
1989-08-27T04:33:32.480 ,6,0,0.,24.0,0.,24.0
1989-08-27T04:33:56.480 ,7,1,0.,24.0,0.,24.0
1989-08-27T04:34:20.480 ,7,0,0.,24.0,0.,24.0
1989-08-27T04:34:44.480 ,7,1,0.,24.0,0.,24.0
1989-08-27T04:35:08.480 ,7,0,0.,24.0,0.,24.0
1989-08-27T04:35:32.480 ,6,1,0.,24.0,0.,24.0
1989-08-27T04:35:56.480 ,6,0,0.,24.0,0.,24.0
1989-08-27T04:36:20.480 ,5,1,0.,24.0,0.,24.0
1989-08-27T04:36:44.480 ,5,0,0.,24.0,0.,24.0
1989-08-27T04:37:08.480 ,4,1,0.,24.0,0.,24.0
1989-08-27T04:37:32.480 ,4,0,0.,24.0,0.,24.0
1989-08-27T04:37:56.480 ,3,1,0.,24.0,0.,24.0
1989-08-27T04:38:20.480 ,3,0,0.,24.0,0.,24.0
1989-08-27T04:38:44.480 ,2,1,0.,24.0,0.,24.0
1989-08-27T04:39:08.480 ,2,0,0.,24.0,0.,24.0
1989-08-27T04:39:32.480 ,1,1,0.,24.0,0.,24.0
1989-08-27T04:39:56.480 ,1,0,0.,24.0,0.,24.0
1989-08-27T04:40:20.480 ,0,1,0.,24.0,0.,24.0
1989-08-27T04:40:44.480 ,0,0,0.,24.0,0.,24.0
1989-08-27T04:41:08.480 ,0,1,0.,24.0,0.,24.0
1989-08-27T04:41:32.480 ,0,0,0.,24.0,0.,24.0
1989-08-27T04:41:56.480 ,1,1,0.,24.0,0.,24.0
1989-08-27T04:42:20.480 ,1,0,0.,24.0,0.,24.0
1989-08-27T04:42:44.480 ,2,1,0.,24.0,0.,24.0
1989-08-27T04:43:08.480 ,2,0,0.,24.0,0.,24.0
1989-08-27T04:43:32.480 ,3,1,0.,24.0,0.,24.0
1989-08-27T04:43:56.480 ,3,0,0.,24.0,0.,24.0
1989-08-27T04:44:20.480 ,4,1,0.,24.0,0.,24.0
1989-08-27T04:44:44.480 ,4,0,0.,24.0,0.,24.0
1989-08-27T04:45:08.480 ,5,1,0.,24.0,0.,24.0
1989-08-27T04:45:32.480 ,5,0,0.,24.0,0.,24.0
1989-08-27T04:45:56.480 ,6,1,0.,24.0,0.,24.0
1989-08-27T04:46:20.480 ,6,0,0.,24.0,0.,24.0
1989-08-27T04:46:44.480 ,7,1,0.,24.0,0.,24.0
1989-08-27T04:47:08.480 ,7,0,0.,24.0,0.,24.0
1989-08-27T04:47:32.480 ,7,1,0.,24.0,0.,24.0
1989-08-27T04:47:56.480 ,7,0,0.,24.0,0.,24.0
1989-08-27T04:48:20.480 ,6,1,0.,24.0,0.,24.0
1989-08-27T04:48:44.480 ,6,0,0.,24.0,0.,24.0
1989-08-27T04:49:08.480 ,5,1,0.,24.0,0.,24.0
1989-08-27T04:49:32.480 ,5,0,0.,24.0,0.,24.0
1989-08-27T04:49:56.480 ,4,1,0.,24.0,0.,24.0
1989-08-27T04:50:20.480 ,4,0,0.,24.0,0.,24.0
1989-08-27T04:50:44.480 ,3,1,0.,24.0,0.,24.0
1989-08-27T04:51:08.480 ,3,0,0.,24.0,0.,24.0
1989-08-27T04:51:32.480 ,2,1,0.,24.0,0.,24.0
1989-08-27T04:51:56.480 ,2,0,0.,24.0,0.,24.0
1989-08-27T04:52:20.480 ,1,1,0.,24.0,0.,24.0
1989-08-27T04:52:44.480 ,1,0,0.,24.0,0.,24.0
1989-08-27T04:53:08.480 ,0,1,0.,24.0,0.,24.0
1989-08-27T04:53:32.480 ,0,0,0.,24.0,0.,24.0
1989-08-27T04:53:56.480 ,0,1,0.,24.0,0.,24.0
1989-08-27T04:54:20.480 ,0,0,0.,24.0,0.,24.0
1989-08-27T04:54:44.480 ,1,1,0.,24.0,0.,24.0
1989-08-27T04:55:08.480 ,1,0,0.,24.0,0.,24.0
1989-08-27T04:55:32.480 ,2,1,0.,24.0,0.,24.0
1989-08-27T04:55:56.480 ,2,0,0.,24.0,0.,24.0
1989-08-27T04:56:20.480 ,3,1,0.,24.0,0.,24.0
1989-08-27T04:56:44.480 ,3,0,0.,24.0,0.,24.0
1989-08-27T04:57:08.480 ,4,1,0.,24.0,0.,24.0
1989-08-27T04:57:32.480 ,4,0,0.,24.0,0.,24.0
1989-08-27T04:57:56.480 ,5,1,0.,24.0,0.,24.0
1989-08-27T04:58:20.480 ,5,0,0.,24.0,0.,24.0
1989-08-27T04:58:44.480 ,6,1,0.,24.0,0.,24.0
1989-08-27T04:59:08.480 ,6,0,0.,24.0,0.,24.0
1989-08-27T04:59:32.480 ,7,1,0.,24.0,0.,24.0
1989-08-27T04:59:56.480 ,7,0,0.,24.0,0.,24.0
1989-08-27T05:00:20.480 ,7,1,0.,24.0,0.,24.0
1989-08-27T05:00:44.480 ,7,0,0.,24.0,0.,24.0
1989-08-27T05:01:08.480 ,6,1,0.,24.0,0.,24.0
1989-08-27T05:01:32.480 ,6,0,0.,24.0,0.,24.0
1989-08-27T05:01:56.480 ,5,1,0.,24.0,0.,24.0
1989-08-27T05:02:20.480 ,5,0,0.,24.0,0.,24.0
1989-08-27T05:02:44.480 ,4,1,0.,24.0,0.,24.0
1989-08-27T05:03:08.480 ,4,0,0.,24.0,0.,24.0
1989-08-27T05:03:32.480 ,3,1,0.,24.0,0.,24.0
1989-08-27T05:03:56.480 ,3,0,0.,24.0,0.,24.0
1989-08-27T05:04:20.480 ,2,1,0.,24.0,0.,24.0
1989-08-27T05:04:44.480 ,2,0,0.,24.0,0.,24.0
1989-08-27T05:05:08.480 ,1,1,0.,24.0,0.,24.0
1989-08-27T05:05:32.480 ,1,0,0.,24.0,0.,24.0
1989-08-27T05:05:56.480 ,0,1,0.,24.0,0.,24.0
1989-08-27T05:06:20.480 ,0,0,0.,24.0,0.,24.0
1989-08-27T05:06:44.480 ,0,1,0.,24.0,0.,24.0
1989-08-27T05:07:08.480 ,0,0,0.,24.0,0.,24.0
1989-08-27T05:07:32.480 ,1,1,0.,24.0,0.,24.0
1989-08-27T05:07:56.480 ,1,0,0.,24.0,0.,24.0
1989-08-27T05:08:20.480 ,2,1,0.,24.0,0.,24.0
1989-08-27T05:08:44.480 ,2,0,0.,24.0,0.,24.0
1989-08-27T05:09:08.480 ,3,1,0.,24.0,0.,24.0
1989-08-27T05:09:32.480 ,3,0,0.,24.0,0.,24.0
1989-08-27T05:09:56.480 ,4,1,0.,24.0,0.,24.0
1989-08-27T05:10:20.480 ,4,0,0.,24.0,0.,24.0
1989-08-27T05:10:44.480 ,5,1,0.,24.0,0.,24.0
1989-08-27T05:11:08.480 ,5,0,0.,24.0,0.,24.0
1989-08-27T05:11:32.480 ,6,1,0.,24.0,0.,24.0
1989-08-27T05:11:56.480 ,6,0,0.,24.0,0.,24.0
1989-08-27T05:12:20.480 ,7,1,0.,24.0,0.,24.0
1989-08-27T05:12:44.480 ,7,0,0.,24.0,0.,24.0
1989-08-27T05:13:08.480 ,7,1,0.,24.0,0.,24.0
1989-08-27T05:13:32.480 ,7,0,0.,24.0,0.,24.0
1989-08-27T05:13:56.480 ,6,1,0.,24.0,0.,24.0
1989-08-27T05:14:20.480 ,6,0,0.,24.0,0.,24.0
1989-08-27T05:14:44.480 ,5,1,0.,24.0,0.,24.0
1989-08-27T05:15:08.480 ,5,0,0.,24.0,0.,24.0
1989-08-27T05:15:32.480 ,4,1,0.,24.0,0.,24.0
1989-08-27T05:15:56.480 ,4,0,0.,24.0,0.,24.0
1989-08-27T05:16:20.480 ,3,1,0.,24.0,0.,24.0
1989-08-27T05:16:44.480 ,3,0,0.,24.0,0.,24.0
1989-08-27T05:17:08.480 ,2,1,0.,24.0,0.,24.0
1989-08-27T05:17:32.480 ,2,0,0.,24.0,0.,24.0
1989-08-27T05:17:56.480 ,1,1,0.,24.0,0.,24.0
1989-08-27T05:18:20.480 ,1,0,0.,24.0,0.,24.0
1989-08-27T05:18:44.480 ,0,1,0.,24.0,0.,24.0
1989-08-27T05:19:08.480 ,0,0,0.,24.0,0.,24.0
1989-08-27T05:19:32.480 ,0,1,0.,24.0,0.,24.0
1989-08-27T05:19:56.480 ,0,0,0.,24.0,0.,24.0
1989-08-27T05:20:20.480 ,1,1,0.,24.0,0.,24.0
1989-08-27T05:20:44.480 ,1,0,0.,24.0,0.,24.0
1989-08-27T05:21:08.480 ,2,1,0.,24.0,0.,24.0
1989-08-27T05:21:32.480 ,2,0,0.,24.0,0.,24.0
1989-08-27T05:21:56.480 ,3,1,0.,24.0,0.,24.0
1989-08-27T05:22:20.480 ,3,0,0.,24.0,0.,24.0
1989-08-27T05:22:44.480 ,4,1,0.,24.0,0.,24.0
1989-08-27T05:23:08.480 ,4,0,0.,24.0,0.,24.0
1989-08-27T05:23:32.480 ,5,1,0.,24.0,0.,24.0
1989-08-27T05:23:56.480 ,5,0,0.,24.0,0.,24.0
1989-08-27T05:24:20.480 ,6,1,0.,24.0,0.,24.0
1989-08-27T05:24:44.480 ,6,0,0.,24.0,0.,24.0
1989-08-27T05:25:08.480 ,7,1,0.,24.0,0.,24.0
1989-08-27T05:25:32.480 ,7,0,0.,24.0,0.,24.0
1989-08-27T05:25:56.480 ,7,1,0.,24.0,0.,24.0
1989-08-27T05:26:20.480 ,7,0,0.,24.0,0.,24.0
1989-08-27T05:26:44.480 ,6,1,0.,24.0,0.,24.0
1989-08-27T05:27:08.480 ,6,0,0.,24.0,0.,24.0
1989-08-27T05:27:32.480 ,5,1,0.,24.0,0.,24.0
1989-08-27T05:27:56.480 ,5,0,0.,24.0,0.,24.0
1989-08-27T05:28:20.480 ,4,1,0.,24.0,0.,24.0
1989-08-27T05:28:44.480 ,4,0,0.,24.0,0.,24.0
1989-08-27T05:29:08.480 ,3,1,0.,24.0,0.,24.0
1989-08-27T05:29:32.480 ,3,0,0.,24.0,0.,24.0
1989-08-27T05:29:56.480 ,2,1,0.,24.0,0.,24.0
1989-08-27T05:30:20.480 ,2,0,0.,24.0,0.,24.0
1989-08-27T05:30:44.480 ,1,1,0.,24.0,0.,24.0
1989-08-27T05:31:08.480 ,1,0,0.,24.0,0.,24.0
1989-08-27T05:31:32.480 ,0,1,0.,24.0,0.,24.0
1989-08-27T05:31:56.480 ,0,0,0.,24.0,0.,24.0
1989-08-27T05:32:20.480 ,0,1,0.,24.0,0.,24.0
1989-08-27T05:32:44.480 ,0,0,0.,24.0,0.,24.0
1989-08-27T05:33:08.480 ,1,1,0.,24.0,0.,24.0
1989-08-27T05:33:32.480 ,1,0,0.,24.0,0.,24.0
1989-08-27T05:33:56.480 ,2,1,0.,24.0,0.,24.0
1989-08-27T05:34:20.480 ,2,0,0.,24.0,0.,24.0
1989-08-27T05:34:44.480 ,3,1,0.,24.0,0.,24.0
1989-08-27T05:35:08.480 ,3,0,0.,24.0,0.,24.0
1989-08-27T05:35:32.480 ,4,1,0.,24.0,0.,24.0
1989-08-27T05:35:56.480 ,4,0,0.,24.0,0.,24.0
1989-08-27T05:36:20.480 ,5,1,0.,24.0,0.,24.0
1989-08-27T05:36:44.480 ,5,0,0.,24.0,0.,24.0
1989-08-27T05:37:08.480 ,6,1,0.,24.0,0.,24.0
1989-08-27T05:37:32.480 ,6,0,0.,24.0,0.,24.0
1989-08-27T05:37:56.480 ,7,1,0.,24.0,0.,24.0
1989-08-27T05:38:20.480 ,7,0,0.,24.0,0.,24.0
1989-08-27T05:38:44.480 ,7,1,0.,24.0,0.,24.0
1989-08-27T05:39:08.480 ,7,0,0.,24.0,0.,24.0
1989-08-27T05:39:32.480 ,6,1,0.,24.0,0.,24.0
1989-08-27T05:39:56.480 ,6,0,0.,24.0,0.,24.0
1989-08-27T05:40:20.480 ,5,1,0.,24.0,0.,24.0
1989-08-27T05:40:44.480 ,5,0,0.,24.0,0.,24.0
1989-08-27T05:41:08.480 ,4,1,0.,24.0,0.,24.0
1989-08-27T05:41:32.480 ,4,0,0.,24.0,0.,24.0
1989-08-27T05:41:56.480 ,3,1,0.,24.0,0.,24.0
1989-08-27T05:42:20.480 ,3,0,0.,24.0,0.,24.0
1989-08-27T05:42:44.480 ,2,1,0.,24.0,0.,24.0
1989-08-27T05:43:08.480 ,2,0,0.,24.0,0.,24.0
1989-08-27T05:43:32.480 ,1,1,0.,24.0,0.,24.0
1989-08-27T05:43:56.480 ,1,0,0.,24.0,0.,24.0
1989-08-27T05:44:20.480 ,0,1,0.,24.0,0.,24.0
1989-08-27T05:44:44.480 ,0,0,0.,24.0,0.,24.0
1989-08-27T05:45:08.480 ,0,1,0.,24.0,0.,24.0
1989-08-27T05:45:32.480 ,0,0,0.,24.0,0.,24.0
1989-08-27T05:45:56.480 ,1,1,0.,24.0,0.,24.0
1989-08-27T05:46:20.480 ,1,0,0.,24.0,0.,24.0
1989-08-27T05:46:44.480 ,2,1,0.,24.0,0.,24.0
1989-08-27T05:47:08.480 ,2,0,0.,24.0,0.,24.0
1989-08-27T05:47:32.480 ,3,1,0.,24.0,0.,24.0
1989-08-27T05:47:56.480 ,3,0,0.,24.0,0.,24.0
1989-08-27T05:48:20.480 ,4,1,0.,24.0,0.,24.0
1989-08-27T05:48:44.480 ,4,0,0.,24.0,0.,24.0
1989-08-27T05:49:08.480 ,5,1,0.,24.0,0.,24.0
1989-08-27T05:49:32.480 ,5,0,0.,24.0,0.,24.0
1989-08-27T05:49:56.480 ,6,1,0.,24.0,0.,24.0
1989-08-27T05:50:20.480 ,6,0,0.,24.0,0.,24.0
1989-08-27T05:50:44.480 ,7,1,0.,24.0,0.,24.0
1989-08-27T05:51:08.480 ,7,0,0.,24.0,0.,24.0
1989-08-27T05:51:32.480 ,7,1,0.,24.0,0.,24.0
1989-08-27T05:51:56.480 ,7,0,0.,24.0,0.,24.0
1989-08-27T05:52:20.480 ,6,1,0.,24.0,0.,24.0
1989-08-27T05:52:44.480 ,6,0,0.,24.0,0.,24.0
1989-08-27T05:53:08.480 ,5,1,0.,24.0,0.,24.0
1989-08-27T05:53:32.480 ,5,0,0.,24.0,0.,24.0
1989-08-27T05:53:56.480 ,4,1,0.,24.0,0.,24.0
1989-08-27T05:54:20.480 ,4,0,0.,24.0,0.,24.0
1989-08-27T05:54:44.480 ,3,1,0.,24.0,0.,24.0
1989-08-27T05:55:08.480 ,3,0,0.,24.0,0.,24.0
1989-08-27T05:55:32.480 ,2,1,0.,24.0,0.,24.0
1989-08-27T05:55:56.480 ,2,0,0.,24.0,0.,24.0
1989-08-27T05:56:20.480 ,1,1,0.,24.0,0.,24.0
1989-08-27T05:56:44.480 ,1,0,0.,24.0,0.,24.0
1989-08-27T05:57:08.480 ,0,1,0.,24.0,0.,24.0
1989-08-27T05:57:32.480 ,0,0,0.,24.0,0.,24.0
1989-08-27T05:57:56.480 ,0,1,0.,24.0,0.,24.0
1989-08-27T05:58:20.480 ,0,0,0.,24.0,0.,24.0
1989-08-27T05:58:44.480 ,1,1,0.,24.0,0.,24.0
1989-08-27T05:59:08.480 ,1,0,0.,24.0,0.,24.0
1989-08-27T05:59:32.480 ,2,1,0.,24.0,0.,24.0
1989-08-27T05:59:56.480 ,2,0,0.,24.0,0.,24.0
1989-08-27T06:00:20.480 ,3,1,0.,24.0,0.,24.0
